Wind_Speed
27 27 27 27 27 28 28 28 29 29 30 31 32 32 32 31 31 30 29 29 29 29 29 29 29 29 29 29 29 29 29 28 28 28 29 30 30 29 28 28 28 28 28 28 28 27 27 28 28 28 27 26 27 27 27 26 26 27 27 27 26 25 25 21 13 16 27 27 24 27 27 26 27 25 24 27 29 29 31 32 32 33 33 35 36
27 26 26 26 27 27 27 27 27 27 27 28 29 29 29 28 27 27 27 27 26 26 26 26 27 27 28 28 28 28 28 28 27 27 28 29 28 28 27 27 27 28 28 28 28 26 26 27 28 27 26 26 27 27 27 27 26 27 26 26 27 26 25 25 19 15 22 27 24 25 27 26 25 26 27 30 33 32 32 33 33 33 33 34 36
25 25 26 27 27 27 26 25 24 24 24 25 26 26 25 24 23 23 23 23 23 24 24 24 24 25 26 27 27 26 26 26 26 26 27 27 27 27 27 27 27 28 28 28 27 26 26 27 27 26 25 26 27 27 27 27 26 26 27 26 28 28 26 26 25 19 20 29 29 25 26 27 27 28 29 31 31 30 31 33 34 33 33 34 35
25 26 26 26 25 24 23 22 22 22 22 23 23 22 21 20 19 20 20 20 20 21 21 21 22 23 24 24 24 24 24 24 24 24 25 25 25 25 25 26 26 27 27 26 26 25 25 25 26 25 25 25 26 26 26 26 25 25 26 27 26 27 27 25 26 24 22 27 32 28 25 27 29 28 28 27 27 29 30 32 33 33 33 34 35
25 25 24 23 22 20 19 18 18 19 20 20 20 19 19 18 18 18 18 17 18 18 18 18 19 20 21 21 21 21 21 21 21 21 21 21 22 23 24 24 24 24 25 24 24 23 23 24 24 23 24 25 25 25 24 23 24 23 24 25 24 25 25 24 27 29 26 25 31 32 27 27 29 28 25 25 28 29 29 31 31 32 33 33 33
23 23 21 20 19 17 16 16 16 16 16 17 17 17 17 17 17 17 16 16 16 16 16 16 17 18 18 18 18 18 17 17 17 17 18 19 20 21 21 22 22 22 22 21 21 21 21 22 22 22 22 23 23 23 23 22 22 23 23 24 25 25 26 27 27 26 24 25 30 33 31 28 26 26 25 24 26 27 28 32 33 31 31 33 34
22 21 20 18 17 16 15 14 14 13 13 13 13 14 14 14 15 15 14 14 14 15 15 15 15 15 15 15 15 15 14 15 15 16 16 16 17 17 17 18 18 18 18 18 18 19 20 21 21 21 21 22 22 21 21 21 21 22 22 22 22 22 23 24 23 21 23 27 28 29 30 28 24 24 26 24 23 25 26 29 32 29 28 32 35
21 19 18 18 17 16 14 13 12 12 11 11 11 11 12 12 12 12 12 12 13 13 13 14 14 13 13 14 14 14 14 14 14 14 14 14 14 14 15 15 16 16 17 18 19 19 20 20 20 20 20 19 20 20 19 20 20 21 21 20 19 21 22 22 22 23 24 25 25 25 26 27 25 24 25 23 19 22 24 23 28 30 29 32 35
20 19 18 17 16 14 14 13 13 12 11 11 11 11 11 11 11 11 10 11 11 11 12 12 12 12 13 13 13 13 13 13 13 13 13 14 14 14 15 16 17 18 19 19 20 20 19 19 19 19 19 19 20 21 21 21 21 21 21 21 20 20 21 20 19 19 19 19 20 21 20 23 24 20 20 19 15 19 23 20 25 30 31 34 37
19 18 18 17 15 15 14 14 13 12 11 11 11 11 11 11 10 10 9 10 10 10 10 11 11 12 12 12 12 13 13 13 14 14 15 15 16 17 17 18 19 19 20 20 20 19 18 18 18 18 19 20 21 22 23 23 23 22 21 19 19 18 19 20 19 18 18 17 19 18 15 20 24 19 17 21 20 21 24 22 24 30 28 28 33
20 20 19 18 16 16 15 14 13 13 12 13 12 12 11 10 9 9 9 9 10 10 10 11 11 12 12 12 13 13 13 14 14 15 15 16 16 17 17 18 18 18 18 18 17 17 16 15 15 15 16 16 16 17 17 18 17 17 17 15 15 15 16 18 19 18 18 18 21 20 14 19 27 23 19 24 25 23 26 26 25 27 22 15 18
23 22 20 19 18 17 16 15 15 14 14 14 13 13 12 11 10 10 10 10 10 11 11 11 11 11 12 12 12 11 11 12 12 12 13 13 13 14 14 15 15 15 14 14 14 14 14 13 12 12 11 10 10 9 9 9 9 10 12 13 15 16 16 18 19 18 17 18 21 22 17 19 27 25 17 20 24 23 24 25 22 22 21 15 16
25 23 21 20 20 19 17 16 16 16 16 15 14 13 12 11 11 10 10 10 10 10 10 10 10 10 9 9 8 7 7 8 9 9 9 10 10 11 12 12 12 12 12 12 12 11 11 11 10 9 9 8 8 8 7 7 7 8 9 10 11 13 15 18 19 19 20 19 22 25 22 18 24 25 19 19 23 22 23 24 22 21 23 21 23
25 23 22 22 21 20 18 17 17 17 16 15 14 13 12 12 11 10 10 9 9 9 8 8 7 6 6 5 4 4 4 5 6 6 7 8 9 9 10 11 11 11 10 10 9 9 8 9 10 10 9 9 8 8 8 8 8 9 10 10 11 12 12 14 15 17 19 21 24 29 27 22 24 29 26 23 24 24 25 27 24 23 26 28 32
25 24 24 23 22 21 19 19 19 18 17 16 15 14 13 12 11 10 9 9 8 7 7 6 5 5 4 4 3 3 4 4 4 4 5 6 7 8 8 9 8 8 8 8 8 8 8 9 9 9 9 8 8 8 8 9 10 12 13 14 14 15 15 15 13 13 14 17 20 25 27 25 26 29 29 27 28 28 29 31 29 29 32 34 37
25 25 25 25 24 23 22 22 21 20 19 18 17 16 14 12 12 11 10 9 8 8 7 6 5 5 4 3 3 4 3 2 2 2 3 4 5 5 5 6 6 6 7 7 8 8 9 9 9 9 8 6 6 6 8 10 12 14 16 17 18 18 18 17 15 14 14 15 17 21 24 24 25 27 27 27 28 28 30 31 29 27 26 25 27
26 27 27 27 26 25 25 24 23 22 20 20 19 17 15 14 12 11 11 10 9 8 7 6 6 5 4 3 4 4 3 1 0 0 1 2 2 3 4 5 6 6 6 6 6 6 7 8 8 8 7 6 6 7 8 10 13 15 18 20 21 22 21 19 17 17 17 18 21 23 24 25 25 26 26 25 25 24 26 28 24 19 17 13 13
27 27 27 27 26 25 25 24 23 22 21 21 21 19 17 15 13 12 11 10 9 8 7 7 6 5 4 3 3 5 4 3 2 1 1 1 2 2 4 5 6 7 7 6 6 5 6 7 8 8 8 7 7 8 9 11 14 16 18 21 23 25 24 21 21 23 24 24 25 26 26 27 27 26 25 23 21 19 21 25 24 20 17 12 10
27 27 26 26 25 24 24 23 23 22 22 21 20 19 18 16 14 12 11 10 9 8 7 7 6 5 4 3 4 5 6 5 4 3 3 2 3 3 5 6 7 8 9 9 9 9 8 9 9 10 11 10 10 11 11 12 15 16 18 20 23 26 25 23 25 27 28 28 28 28 29 29 28 26 25 22 18 16 17 22 24 22 20 18 14
27 27 26 25 25 24 23 22 22 22 21 21 20 19 18 16 14 13 11 10 9 8 7 7 6 6 5 4 5 6 7 7 5 4 4 3 3 4 5 7 8 8 9 10 11 11 12 12 12 13 13 13 13 13 13 14 15 17 18 19 23 26 27 26 27 27 28 29 29 29 29 28 26 25 24 21 18 15 14 16 20 22 24 23 19
27 27 27 27 26 24 23 22 22 21 21 21 20 19 17 17 15 14 13 11 10 9 8 7 7 7 7 7 7 8 8 8 7 5 4 3 3 4 5 6 7 8 9 10 11 13 15 16 16 15 15 15 15 15 16 16 16 18 20 22 24 26 27 28 29 27 27 29 29 29 28 26 25 23 22 20 18 16 15 15 17 21 24 25 23
28 28 28 27 26 24 22 21 21 21 20 21 21 20 19 17 16 14 13 12 10 9 8 8 7 8 8 7 7 8 8 7 6 6 5 3 3 4 4 5 6 7 9 11 13 15 16 17 17 16 16 16 17 18 18 19 19 21 22 24 26 26 25 27 28 27 26 26 26 28 26 24 23 22 21 20 19 17 17 17 18 20 24 26 27
30 29 29 27 25 24 23 22 21 20 20 20 20 21 19 18 16 14 12 11 10 9 8 7 6 7 8 7 7 7 7 6 5 6 5 4 3 3 3 3 5 7 10 13 15 16 17 17 17 17 17 18 19 20 20 21 22 23 24 24 25 25 25 26 26 25 25 24 24 26 25 22 22 22 21 20 20 20 20 21 21 22 24 26 28
32 31 30 29 27 26 24 22 20 20 20 20 20 19 18 16 15 12 11 10 9 8 7 6 6 7 7 7 7 6 5 5 5 5 5 4 3 2 1 2 5 9 12 14 15 16 17 18 18 19 19 20 21 21 21 21 22 22 22 23 23 24 24 25 25 24 24 23 23 25 25 22 21 23 23 23 23 24 24 23 23 22 23 25 26
31 31 29 28 27 26 23 21 20 19 19 19 19 18 17 15 13 10 9 8 8 7 6 5 5 5 6 6 5 4 4 4 5 5 4 3 3 3 5 7 9 11 13 15 16 17 18 19 20 20 21 21 21 20 20 20 20 20 20 20 22 23 23 24 24 23 24 24 24 25 26 24 23 24 26 27 27 26 25 24 23 22 22 24 26
31 30 30 28 26 25 24 23 20 18 16 15 14 14 13 12 11 10 8 8 8 7 6 5 4 4 4 4 4 4 3 4 5 6 5 6 7 8 10 11 12 14 16 17 19 20 20 20 21 21 20 19 19 19 19 19 19 19 19 19 20 22 22 23 24 24 25 25 25 26 27 27 27 27 28 27 26 25 23 23 24 23 22 23 26
30 28 29 29 29 28 27 25 21 17 14 12 11 10 9 9 10 9 8 8 8 7 6 5 3 3 3 4 4 5 5 5 6 8 9 10 11 12 13 14 16 18 19 20 20 22 22 22 21 20 19 18 17 17 18 18 18 19 19 19 19 20 21 22 23 25 26 27 27 29 29 29 28 28 27 26 25 24 23 23 23 24 23 23 24
30 28 28 29 29 28 27 25 21 17 14 11 10 9 8 7 8 9 8 7 6 6 4 3 2 2 2 4 6 8 9 9 9 10 12 13 14 15 16 17 19 20 21 21 22 23 23 22 21 20 19 20 20 19 18 19 19 19 19 19 19 19 20 21 22 23 25 27 28 29 29 28 27 26 26 26 26 24 23 22 23 24 23 22 21
26 26 25 25 23 23 22 20 18 16 13 11 9 8 7 6 6 8 8 6 5 4 3 2 2 3 4 5 6 7 10 11 11 12 14 14 15 15 16 18 20 20 20 20 22 24 24 23 22 22 23 24 23 22 21 21 21 20 19 19 19 19 20 20 21 22 23 24 26 26 26 27 27 26 25 26 26 25 23 23 23 23 22 20 20
23 22 21 21 19 18 18 16 15 13 11 10 9 8 7 5 5 6 7 6 5 4 3 3 3 4 5 6 6 7 10 12 13 13 13 13 14 15 17 19 19 18 18 20 22 23 24 24 22 22 23 23 23 22 22 22 21 20 20 20 19 18 19 19 19 21 22 23 24 25 25 25 26 25 24 24 26 25 24 23 23 23 21 19 19
21 18 18 18 17 16 15 14 12 11 9 7 6 6 5 4 4 5 6 6 5 4 3 1 1 2 3 5 6 7 9 10 11 11 13 14 16 17 18 18 17 17 18 20 21 21 21 22 21 20 20 20 19 19 19 19 19 20 21 21 19 17 17 18 19 20 22 23 24 24 24 24 24 24 24 24 25 26 24 23 22 21 21 20 19
19 17 17 17 16 16 15 13 11 9 7 6 5 4 3 3 4 4 5 5 5 3 2 1 1 1 2 3 5 6 7 9 10 12 14 16 17 17 17 17 17 18 17 18 19 19 18 19 20 19 18 17 17 17 18 18 19 19 20 20 19 18 18 20 21 22 23 24 24 24 24 23 23 24 24 24 24 24 24 21 20 20 20 20 20
20 18 17 17 16 14 13 11 9 8 7 6 5 5 5 5 6 6 7 7 6 5 4 2 1 1 2 4 5 7 9 10 12 13 14 14 15 16 16 16 16 16 15 15 17 17 16 16 17 17 16 16 17 18 18 18 19 20 21 21 22 23 24 24 24 24 24 25 25 25 24 24 24 24 24 23 23 23 22 20 19 19 20 19 19
19 18 16 15 14 12 10 9 7 7 6 5 6 6 6 5 5 7 9 9 9 7 6 5 4 4 4 5 6 7 9 10 11 12 12 13 13 14 14 14 13 12 12 12 13 14 14 14 14 15 17 18 19 19 20 19 20 22 24 25 26 27 27 25 24 24 25 26 26 25 25 24 23 22 22 22 22 22 21 20 19 19 18 18 18
18 16 14 13 11 10 8 7 6 5 6 7 7 7 5 5 5 6 7 8 8 8 9 8 7 6 6 7 6 7 7 8 9 10 10 11 11 11 11 11 11 9 9 9 11 13 14 15 15 16 17 18 18 19 20 22 23 23 25 27 29 29 28 27 26 26 26 26 26 26 25 25 23 22 22 23 22 21 19 19 18 18 18 19 19
15 14 13 11 9 8 7 6 6 6 7 7 7 5 4 3 4 5 6 5 5 5 6 6 6 6 6 6 5 6 6 7 8 8 8 7 7 8 8 9 9 9 9 10 12 13 14 15 16 16 17 19 20 20 22 23 24 25 27 29 30 30 29 27 27 26 26 26 27 27 27 26 25 23 23 23 23 21 20 21 21 21 20 20 20
13 12 11 9 7 6 6 6 6 6 6 6 4 3 2 2 3 4 4 5 5 4 5 5 6 7 6 5 6 7 7 7 6 6 5 5 6 7 7 8 9 9 10 11 12 13 14 15 16 17 18 19 19 20 21 22 24 25 26 27 28 29 29 28 28 28 28 28 28 28 28 27 26 25 24 24 23 22 21 22 22 22 22 22 21
11 10 8 7 6 6 6 7 6 5 4 3 2 1 2 3 3 4 4 5 5 4 5 5 6 6 7 6 6 7 8 7 4 3 4 6 7 6 6 6 7 9 10 11 12 12 13 13 15 17 18 19 20 21 22 22 23 24 25 26 28 29 30 30 30 30 29 29 29 29 28 27 26 26 26 25 23 22 22 22 21 21 22 21 19
9 8 7 6 6 6 6 6 5 4 4 3 3 3 4 4 5 5 5 5 5 4 4 3 3 4 6 7 7 9 9 7 5 5 6 7 6 6 7 8 9 9 10 10 11 14 15 17 18 21 22 22 23 23 23 23 23 23 24 26 27 28 28 28 27 28 29 29 30 30 29 28 28 27 26 25 24 23 23 23 24 24 23 21 20
9 8 7 7 7 6 6 5 5 4 4 4 5 5 6 6 6 5 5 4 3 2 1 2 2 3 5 7 8 8 8 7 6 6 6 6 6 8 9 9 9 9 11 13 17 20 22 21 21 23 24 24 24 25 25 25 26 26 26 26 26 27 28 28 27 27 28 28 28 28 28 28 28 27 26 27 28 28 28 28 27 25 24 24 25
9 8 8 7 7 6 6 5 5 4 4 5 5 6 6 5 4 3 3 2 2 1 1 2 3 4 5 7 7 7 6 6 6 5 5 5 6 6 7 8 10 13 16 19 21 22 23 22 22 23 24 24 24 25 25 25 26 27 27 26 26 27 29 28 27 27 27 27 27 27 28 29 28 26 26 27 28 28 28 27 28 28 27 27 26
8 8 7 6 6 5 5 4 4 4 4 5 4 4 4 4 3 3 3 3 2 2 2 2 4 5 5 5 6 6 6 6 6 5 5 5 5 6 8 10 13 15 18 20 20 21 21 21 21 22 22 22 23 23 23 23 24 24 25 25 25 26 27 27 27 27 28 28 29 29 28 27 26 26 27 28 29 29 28 27 29 29 27 24 22
6 5 4 4 3 3 2 2 2 3 4 4 3 3 3 3 3 4 3 3 2 1 2 4 4 3 3 5 7 8 7 7 6 5 5 6 7 9 10 12 15 17 18 18 18 18 19 19 20 20 19 20 20 20 20 21 22 23 24 24 24 24 25 25 26 26 26 27 29 29 29 28 28 28 27 27 26 26 25 26 27 28 25 22 23
4 3 3 3 2 2 1 0 1 2 2 3 3 3 3 3 3 3 3 2 2 2 3 3 1 1 3 7 8 8 7 7 7 7 8 9 9 11 13 15 17 17 17 17 17 18 18 19 19 19 19 20 20 20 20 22 23 23 23 23 23 23 24 24 24 25 26 27 28 29 28 28 27 27 27 26 25 24 24 24 24 25 26 26 25
5 4 4 3 2 2 2 2 3 3 3 3 4 4 4 3 3 3 2 2 2 1 0 1 2 3 5 7 8 8 8 9 9 10 10 10 11 13 16 17 17 17 17 18 18 18 18 18 19 20 21 22 23 23 23 24 24 23 23 23 24 24 25 25 26 26 26 27 28 28 28 28 27 27 27 28 27 27 26 26 25 24 25 25 25
5 5 4 3 3 3 3 4 4 4 4 4 4 4 4 3 3 3 2 1 1 1 2 3 5 5 7 8 9 9 10 11 12 11 11 12 14 16 16 17 17 17 18 18 18 17 17 18 19 21 22 24 24 25 25 25 25 25 25 25 26 27 28 28 29 29 28 29 29 29 29 29 28 28 28 28 28 27 27 27 27 27 26 26 24
5 4 3 3 3 3 4 4 4 4 4 4 3 3 3 3 3 2 2 2 2 2 3 5 7 8 9 10 10 11 12 12 12 12 13 14 15 15 16 17 17 17 17 17 17 17 17 18 19 20 22 23 24 25 25 25 25 25 25 26 27 28 28 29 31 32 32 33 33 33 33 32 30 30 29 29 29 29 28 27 27 28 28 28 27
5 4 3 2 3 4 4 4 4 3 3 2 2 2 2 2 1 1 1 3 4 4 6 8 9 9 10 10 11 11 11 12 12 12 13 13 14 15 16 16 16 17 17 17 17 17 18 18 19 20 21 23 24 24 25 26 25 26 26 26 27 27 28 30 33 34 35 35 35 35 35 35 34 34 33 31 30 29 29 27 26 26 26 27 27
5 4 3 2 2 2 2 1 2 2 2 2 3 3 1 1 1 2 4 6 6 7 7 9 9 9 10 10 10 10 10 11 11 12 12 13 14 15 15 15 15 16 17 18 18 18 19 19 20 21 21 22 23 24 25 25 25 26 26 27 27 29 30 32 33 34 35 36 36 35 34 35 35 36 35 33 31 30 29 28 27 26 26 25 24
6 5 4 3 2 2 2 3 3 3 3 4 4 3 3 2 4 5 6 7 8 8 8 9 9 9 10 10 10 10 10 10 11 11 12 13 13 14 14 15 15 16 17 18 19 19 19 20 20 21 22 22 23 23 24 25 25 26 26 27 29 30 30 31 33 35 36 36 35 34 34 34 35 36 36 34 32 30 29 28 28 27 25 24 23
7 6 5 5 4 4 4 4 4 5 5 5 4 4 5 5 6 7 7 8 8 8 8 8 8 9 8 8 9 9 10 10 10 10 11 12 13 13 14 15 15 16 17 18 19 19 19 20 21 22 22 23 23 24 24 25 25 26 26 28 28 29 29 31 34 35 36 35 35 35 34 33 33 34 36 36 34 32 30 28 28 27 25 24 23
Wind_Direction
216 219 221 224 226 229 232 233 234 236 238 239 241 243 245 246 248 250 251 251 251 250 251 252 252 253 252 252 252 251 250 250 250 248 246 245 245 245 245 244 243 244 247 248 248 248 248 250 253 255 257 258 259 261 261 260 261 260 258 258 257 255 255 255 257 277 282 281 281 285 287 286 284 282 283 285 285 285 285 286 289 290 288 289 290
217 220 222 224 227 230 233 234 234 235 236 238 240 242 245 246 248 249 250 252 252 251 250 250 250 250 250 251 251 250 250 250 250 248 245 245 245 245 245 243 243 245 246 248 248 249 250 251 254 258 260 260 261 263 264 263 262 262 260 259 260 259 256 256 258 270 284 284 284 288 289 285 282 283 287 288 287 286 284 285 287 287 286 287 289
219 221 223 226 228 230 233 234 234 235 235 237 238 240 243 245 247 248 251 252 252 250 249 248 248 248 249 250 250 250 250 250 250 248 246 246 245 245 246 245 245 245 246 247 249 250 251 253 256 261 262 262 264 266 267 267 265 263 264 263 263 263 260 259 260 265 279 286 287 288 288 286 284 286 291 290 287 286 286 287 288 286 285 287 287
220 220 222 225 227 229 231 233 233 234 235 237 238 240 241 243 244 246 248 250 249 248 248 247 248 248 248 249 249 249 250 249 249 248 248 248 247 248 248 247 246 247 248 250 252 253 254 256 260 264 266 264 266 269 270 270 269 267 267 267 264 265 265 262 264 268 275 284 287 286 286 287 287 289 291 290 288 289 288 288 288 286 287 288 286
217 217 218 220 221 224 226 228 230 232 234 236 238 239 239 239 240 241 242 243 244 244 244 244 244 245 246 247 247 248 248 249 249 248 248 248 248 248 248 248 249 250 251 253 255 257 259 261 265 268 268 266 267 271 272 272 274 272 271 272 272 272 272 273 273 271 270 277 285 289 290 289 289 290 289 289 291 292 289 288 287 287 288 287 284
212 211 212 214 216 218 220 222 225 228 231 233 234 235 235 235 235 236 237 238 238 238 238 239 241 242 244 245 246 247 247 246 246 246 246 245 246 247 248 249 251 252 254 256 257 259 261 263 267 269 268 268 269 272 275 277 279 277 276 277 278 275 272 272 268 265 270 281 287 290 292 291 290 290 290 291 291 291 291 292 290 287 287 288 288
207 208 210 212 214 215 216 218 220 222 225 226 227 229 230 230 230 231 232 233 234 235 234 236 237 238 239 239 239 239 238 238 239 239 241 243 244 245 246 247 249 251 253 255 256 259 261 264 268 270 270 272 274 276 279 281 281 279 279 279 279 277 276 275 271 271 278 281 279 282 286 289 289 288 291 293 290 287 288 290 291 290 290 291 291
208 209 210 211 212 212 211 211 211 212 214 215 218 221 220 221 221 222 223 224 226 228 228 230 231 231 232 231 230 230 230 233 236 238 240 240 240 241 241 243 245 248 251 254 256 258 261 263 266 269 271 271 273 274 275 277 278 277 278 278 281 284 285 283 280 277 275 273 273 279 286 289 289 289 292 293 288 286 287 284 285 290 292 292 291
208 209 210 210 210 206 202 201 200 200 201 202 206 209 210 212 212 212 214 216 218 220 220 221 223 225 226 227 226 228 231 234 237 238 239 238 238 238 240 242 244 247 249 251 252 252 254 257 258 260 262 263 264 265 264 265 269 273 276 278 281 283 285 285 283 282 281 279 282 288 293 291 290 295 300 296 292 295 297 291 284 288 295 296 294
208 209 209 208 203 197 194 193 190 189 191 193 196 199 201 204 206 208 211 214 217 219 220 220 222 224 226 228 229 230 233 235 237 238 239 239 240 240 241 243 244 247 249 251 252 254 255 258 260 261 263 265 266 266 265 262 262 264 268 273 277 280 283 283 281 283 286 286 284 287 291 288 288 296 303 301 304 305 303 298 290 292 298 298 296
207 209 208 203 197 193 189 187 186 185 186 188 189 191 194 195 199 204 206 210 215 217 221 223 224 226 227 229 231 231 232 234 235 237 238 237 238 239 241 244 245 247 252 255 259 264 267 269 271 272 272 272 271 269 267 264 261 258 256 255 259 265 273 277 278 277 277 277 280 280 278 281 288 294 298 299 302 301 297 292 287 288 292 291 296
206 207 205 199 195 192 188 183 182 182 182 183 182 181 184 185 188 193 197 201 205 207 212 216 217 221 223 224 227 228 228 231 232 234 236 236 239 242 244 248 252 255 259 264 269 275 279 282 285 284 285 286 287 288 286 282 277 269 262 256 252 253 257 264 272 276 275 273 277 277 274 279 288 294 301 303 302 300 297 293 287 285 285 279 282
205 204 200 197 193 188 184 180 180 181 179 177 176 175 177 179 181 186 190 194 198 200 203 208 211 215 218 220 224 225 226 231 234 237 242 245 248 252 256 260 264 267 270 274 279 284 291 296 301 304 311 318 318 318 319 314 305 292 285 280 271 263 259 258 261 268 273 274 275 277 277 281 286 291 301 307 305 304 303 299 296 291 283 275 277
200 198 195 194 190 183 180 180 181 181 176 172 172 172 172 173 174 179 183 186 189 190 194 199 202 207 213 214 212 211 213 223 233 241 247 253 257 259 263 266 270 274 278 284 293 302 308 309 312 318 322 326 327 325 323 321 316 309 306 304 299 295 288 279 271 267 268 269 271 276 280 283 285 289 296 300 300 301 300 297 297 295 287 283 284
194 194 192 190 187 181 178 180 182 179 174 170 167 167 168 168 167 169 171 173 174 173 175 181 182 182 186 185 170 163 175 190 210 227 235 244 252 256 260 265 272 280 289 301 313 319 319 317 318 320 319 319 324 325 322 321 318 315 315 315 314 313 312 308 301 291 281 275 273 277 282 285 287 290 294 297 296 296 295 293 295 295 292 290 289
189 190 190 188 186 181 179 180 180 177 172 167 164 163 163 163 163 163 163 162 161 160 159 158 157 155 153 146 128 124 140 169 190 212 227 239 251 259 266 273 282 292 304 315 321 320 318 318 318 316 313 316 321 324 326 323 318 317 316 316 315 313 314 315 313 308 302 293 288 288 289 291 291 290 291 293 292 293 296 295 295 293 290 289 289
189 189 189 187 183 181 182 181 178 176 172 166 162 161 161 160 160 159 159 155 151 150 146 137 131 128 127 118 100 99 104 114 114 295 270 270 277 283 286 291 300 311 322 325 322 319 318 319 319 316 319 331 335 334 332 323 317 317 317 316 314 312 314 321 320 314 310 304 299 298 296 296 295 292 291 290 287 287 290 292 292 291 288 284 287
190 187 186 185 182 181 182 181 178 175 172 167 161 157 156 156 155 154 154 151 145 138 130 123 117 111 111 107 92 92 98 101 90 65 25 352 339 320 314 324 334 339 344 342 338 339 338 337 338 332 332 339 335 329 326 318 314 314 315 315 312 310 316 323 321 316 313 309 306 304 302 301 301 299 298 297 293 284 276 278 284 287 283 276 280
189 185 183 181 180 180 180 181 180 175 169 165 159 155 152 151 150 149 149 147 142 134 126 123 119 110 109 107 100 100 101 101 101 88 66 32 11 355 344 350 358 357 355 351 349 352 354 354 352 344 337 333 326 321 318 314 311 312 314 312 305 305 314 319 315 313 312 309 307 306 304 304 305 304 305 306 306 294 273 272 278 278 274 273 278
185 182 178 176 177 179 179 180 179 174 168 162 156 154 152 151 151 151 149 146 141 134 126 121 116 105 96 86 90 100 101 97 95 87 72 45 16 360 355 359 4 3 359 355 350 348 346 343 343 339 334 329 322 317 314 310 309 309 307 302 297 302 311 312 307 307 307 304 304 304 303 305 306 307 308 309 311 305 289 280 279 275 270 270 273
180 177 175 175 176 176 177 179 178 174 169 162 155 152 151 152 152 150 147 143 138 132 121 115 110 101 93 87 90 97 97 92 88 82 69 44 12 357 359 4 1 356 354 350 343 339 335 332 333 333 330 325 320 317 313 311 310 305 301 299 299 304 308 305 302 304 302 302 303 303 303 305 306 307 309 309 310 309 299 290 284 281 276 271 270
174 171 171 171 172 172 173 174 172 169 167 162 156 150 148 150 149 147 144 140 136 128 118 111 108 101 94 91 92 97 97 88 81 77 72 61 28 3 4 8 1 354 347 338 331 329 327 327 327 327 325 321 319 317 316 314 311 307 304 304 305 304 303 300 301 303 301 301 303 301 301 303 305 306 307 308 310 310 304 296 291 287 285 280 276
170 170 170 168 168 168 166 167 168 166 164 163 158 151 148 148 146 145 144 139 132 124 114 107 105 98 92 90 92 99 99 84 69 67 70 74 67 43 34 27 1 343 332 325 322 322 322 323 323 322 321 318 317 316 316 314 312 310 309 309 307 306 304 301 301 301 300 301 300 297 298 300 302 303 304 305 307 308 304 300 295 290 288 287 284
168 168 168 166 164 164 162 164 167 165 166 167 160 151 147 146 142 140 140 135 124 113 103 97 92 84 79 81 87 94 93 71 50 49 57 67 75 57 16 330 320 318 317 316 317 319 320 319 319 317 316 314 314 315 314 314 314 313 313 312 309 307 306 302 300 299 298 298 296 294 295 298 300 300 302 304 305 306 304 301 298 294 290 288 287
165 163 161 161 161 161 160 163 167 168 171 172 165 155 152 149 141 133 129 123 112 100 89 82 77 69 62 65 71 76 77 55 35 32 32 17 356 335 319 315 316 318 319 320 320 321 320 319 318 316 315 315 316 316 316 318 319 318 317 314 310 307 304 300 298 296 294 292 292 291 293 298 300 300 303 304 304 303 303 303 302 300 297 293 290
163 160 159 160 161 160 160 161 164 168 170 169 163 154 148 143 134 124 117 109 101 93 85 74 63 50 42 41 35 26 23 19 16 11 355 338 333 329 325 323 323 323 322 321 321 321 321 319 319 317 317 318 319 319 320 322 323 322 320 317 312 307 303 299 296 293 290 290 291 291 294 299 302 303 305 306 304 302 302 304 303 301 300 298 293
160 158 159 160 162 163 163 161 162 165 163 159 151 140 131 129 123 114 110 105 99 93 86 78 64 38 17 3 352 348 347 352 357 349 337 330 329 327 325 324 323 322 321 320 321 321 320 319 319 319 320 322 324 325 326 326 326 324 322 320 316 311 307 302 297 292 290 290 291 292 296 300 303 305 307 306 303 302 302 302 300 299 301 299 291
157 156 158 159 162 165 164 161 161 160 156 150 141 129 122 121 115 104 97 94 93 93 90 83 66 30 352 336 334 330 327 334 341 336 329 328 327 325 323 322 323 323 323 322 322 320 319 320 322 325 328 330 330 331 331 330 329 327 325 322 318 314 311 306 300 294 291 291 292 294 298 301 302 304 306 304 301 302 304 302 297 295 298 296 286
150 151 154 156 159 160 158 157 157 154 149 142 132 121 114 111 106 97 85 77 80 84 75 54 31 5 331 319 318 314 313 320 327 325 322 321 320 319 318 319 320 321 321 322 321 321 323 325 329 332 333 333 332 332 332 331 329 327 325 323 319 315 311 306 299 295 294 293 292 293 296 299 300 302 302 300 299 301 303 301 297 294 294 289 279
139 142 146 149 150 150 149 148 149 149 145 138 127 114 102 91 83 80 78 79 89 90 72 47 24 356 331 322 317 309 309 316 319 317 314 310 307 308 309 312 314 316 319 321 322 324 326 326 328 331 331 329 328 327 327 328 327 324 322 320 315 310 307 302 298 298 297 295 292 292 293 295 296 298 299 297 298 300 300 298 295 291 288 283 278
130 132 138 140 140 142 140 138 138 138 134 128 122 111 98 85 72 70 73 79 92 104 103 73 8 346 337 331 323 314 313 313 311 307 305 303 304 306 308 309 311 313 318 321 321 322 324 320 319 322 322 319 318 318 319 320 319 316 315 312 308 305 302 298 298 298 296 293 291 291 290 290 291 293 294 293 295 296 297 296 293 287 282 278 276
121 120 124 124 126 130 131 130 132 130 119 108 97 76 55 44 44 49 55 58 62 75 92 90 13 360 354 340 325 314 309 306 303 303 303 303 304 306 305 307 310 313 317 319 317 315 315 311 309 311 312 309 308 310 312 312 310 310 309 307 305 304 300 298 298 296 292 289 289 288 287 287 288 289 289 289 290 292 293 292 290 286 283 278 274
110 108 110 112 113 117 121 122 122 116 107 95 78 56 35 26 22 14 13 23 39 62 79 76 29 347 319 305 302 302 301 301 302 302 302 301 302 303 305 308 312 316 317 314 308 304 303 300 298 300 303 303 305 308 309 308 308 309 308 305 303 302 301 300 298 295 291 287 285 283 282 283 284 285 286 286 285 286 287 287 287 286 283 278 276
98 96 98 103 104 103 105 108 106 101 94 81 67 51 34 27 26 20 14 15 19 28 35 34 28 11 335 314 308 307 305 305 304 302 303 304 305 307 309 311 312 311 306 298 293 294 295 294 293 296 298 299 302 306 308 308 308 307 305 302 300 299 300 299 296 294 292 289 285 282 280 280 279 279 282 284 283 281 280 280 280 279 278 276 277
88 87 87 89 91 89 88 88 86 81 73 62 55 43 23 9 20 34 35 31 21 11 10 14 18 8 345 328 322 321 318 314 310 308 309 310 311 313 315 315 313 310 304 294 290 292 294 292 291 293 296 299 303 306 307 307 306 304 301 300 299 298 298 296 294 292 290 288 285 283 281 279 277 275 277 278 278 278 277 277 275 274 274 276 277
83 82 80 79 79 77 73 68 62 54 49 47 43 34 12 359 19 41 48 46 34 15 2 358 354 344 335 330 335 347 344 327 318 317 318 320 328 335 338 334 326 317 310 303 299 296 295 294 296 300 304 306 307 307 307 305 303 302 300 298 296 296 295 295 294 293 291 289 287 284 281 278 275 274 274 274 273 272 275 277 276 271 268 271 273
73 73 71 67 62 55 43 38 36 34 36 41 40 27 10 20 39 46 46 42 35 16 352 344 340 340 350 11 26 22 4 338 325 327 334 345 351 350 345 336 325 313 308 307 305 302 300 302 305 309 311 313 314 315 315 313 311 309 307 305 303 302 302 302 302 301 299 296 292 288 282 276 272 271 271 268 267 268 270 271 272 269 266 266 268
52 53 50 43 36 30 23 21 21 19 22 33 28 8 24 37 33 29 31 37 32 10 352 350 344 341 355 15 22 7 352 347 353 356 345 344 346 344 340 334 325 314 309 308 308 311 316 324 329 332 333 335 334 332 329 324 320 318 316 314 311 308 306 306 305 303 301 299 297 294 289 284 280 278 271 263 263 268 271 271 271 270 267 264 263
33 36 37 35 35 34 28 24 22 20 21 22 15 18 27 31 29 30 32 33 28 14 358 344 333 340 353 358 355 349 349 355 358 340 329 333 345 352 350 339 326 318 318 326 335 340 343 345 344 340 337 336 334 330 326 322 319 318 317 314 310 307 306 306 305 303 302 300 298 295 292 287 285 284 278 272 272 276 277 276 274 270 266 263 262
28 36 40 40 42 43 42 45 49 44 34 26 26 31 36 39 39 39 36 29 24 16 341 308 326 350 348 339 335 334 330 319 310 313 322 335 347 350 345 339 337 342 348 351 349 344 340 339 337 332 329 326 323 320 316 313 311 311 311 309 307 305 305 305 305 304 303 300 298 297 296 295 294 292 287 284 283 279 275 272 270 267 265 264 262
32 36 38 41 45 48 54 64 68 57 39 34 35 35 37 43 44 38 35 37 27 15 16 2 349 337 324 322 330 334 326 315 316 328 338 342 343 343 348 359 4 360 352 346 342 338 335 333 331 327 324 321 318 316 313 311 310 310 308 306 305 303 302 302 301 301 301 300 299 299 298 298 299 298 296 296 297 293 286 279 273 267 264 263 262
37 36 35 38 42 47 56 63 62 53 46 46 43 36 33 41 47 43 45 50 43 35 32 351 321 314 320 339 352 354 349 343 341 339 336 340 349 359 6 5 356 348 343 341 341 340 338 334 329 326 324 321 320 318 316 314 312 311 308 306 305 302 301 300 299 299 299 298 297 296 296 295 295 295 294 295 297 296 294 292 287 277 265 258 258
45 42 35 30 31 38 47 49 59 71 66 53 44 41 39 40 41 41 41 38 30 11 289 285 292 306 335 344 342 343 345 350 352 351 352 1 9 13 8 356 346 344 346 348 347 344 339 333 329 326 323 321 320 318 315 312 311 310 308 305 303 301 300 300 299 299 299 298 297 297 297 296 294 291 290 289 290 289 289 293 295 292 284 275 269
31 25 11 1 354 349 339 323 119 105 78 52 48 49 36 20 13 15 10 347 311 265 256 272 310 5 344 335 340 351 0 5 7 7 7 9 8 2 354 348 347 348 350 348 345 342 337 332 328 324 320 319 318 314 312 311 310 308 306 303 301 300 299 298 298 300 301 301 300 298 297 295 294 292 291 292 292 292 290 288 289 293 294 293 288
12 13 19 22 18 24 42 60 73 71 54 47 46 40 33 27 15 359 338 313 287 250 213 23 21 6 348 349 360 9 8 5 5 5 3 359 353 348 345 346 347 346 343 342 342 342 338 334 329 324 320 320 319 317 314 313 310 307 303 300 297 296 296 295 297 298 298 298 299 298 298 298 296 295 294 292 289 288 286 283 283 285 287 288 289
8 11 24 36 41 47 50 52 55 54 47 44 42 39 45 46 25 1 356 360 38 57 19 354 349 353 359 5 8 6 1 360 2 359 353 347 343 343 345 347 345 342 340 341 341 341 339 335 330 325 323 322 321 319 317 314 311 307 304 300 298 297 298 299 301 300 298 297 296 294 294 294 293 292 292 290 288 286 284 282 282 283 281 279 280
1 6 21 37 44 48 49 51 52 53 49 47 46 42 35 14 353 352 7 16 15 5 346 346 354 1 2 2 2 360 359 359 359 355 349 345 345 347 348 347 345 343 342 342 342 341 340 337 334 330 326 324 322 319 317 314 312 309 307 306 304 303 304 306 308 307 304 302 299 295 292 290 288 287 287 285 284 283 280 277 278 277 275 275 274
357 11 38 68 67 57 53 54 52 44 36 28 10 355 342 330 328 360 3 355 357 358 352 353 356 356 354 355 356 356 358 359 358 355 351 349 350 351 349 348 348 348 346 346 347 346 344 341 338 333 329 326 323 320 318 317 315 314 312 312 312 313 314 316 314 311 308 305 302 298 294 290 286 284 281 278 277 277 275 273 275 274 272 271 269
4 18 40 71 81 65 45 27 360 349 343 333 328 331 337 328 343 352 350 349 354 356 354 353 352 350 350 353 354 356 360 1 358 356 355 354 354 354 353 353 355 354 351 351 351 349 347 345 341 338 334 331 327 323 321 320 318 317 318 320 322 323 323 319 314 311 310 308 305 301 297 292 288 285 280 274 271 271 271 271 273 273 272 271 268
2 7 10 5 353 337 323 313 310 313 313 312 319 331 340 338 338 342 344 348 352 354 353 351 349 347 348 352 355 357 0 1 359 357 357 356 355 356 356 357 357 356 354 352 350 349 349 348 345 342 339 336 332 329 326 324 323 323 324 324 322 321 320 317 314 315 316 315 310 305 300 295 291 288 284 278 273 269 267 267 269 270 270 269 266
356 356 353 348 342 335 329 325 324 323 323 326 333 337 336 334 336 341 344 346 348 348 347 346 345 345 348 354 357 357 357 358 358 358 357 357 358 358 357 356 355 353 352 350 349 349 350 349 347 345 343 340 338 336 333 331 331 331 329 326 324 322 320 317 318 321 324 323 318 313 308 302 296 292 289 286 281 274 267 264 265 266 266 265 266
Height
701 703 704 706 707 708 709 710 712 713 714 716 716 717 719 720 721 723 724 725 727 728 729 730 731 732 733 734 735 736 737 739 740 741 742 742 743 745 746 747 748 748 749 750 751 752 752 753 753 754 755 755 755 755 755 756 756 756 756 755 755 756 755 754 751 740 732 734 737 736 736 736 734 734 735 734 734 734 732 731 730 729 728 726 724
698 700 701 703 704 704 705 706 708 710 711 712 713 714 716 717 719 720 721 722 723 724 725 726 727 728 729 730 731 733 734 735 737 738 738 739 740 742 743 744 745 745 746 747 748 749 749 750 750 751 752 752 751 752 752 752 753 752 753 753 751 752 753 751 749 743 733 729 733 734 733 733 731 730 731 730 728 728 728 727 726 725 724 723 721
695 697 699 700 700 701 702 704 705 707 708 709 710 711 713 715 716 717 718 719 720 721 722 723 724 725 726 727 728 730 731 732 733 734 735 736 738 739 740 741 742 742 743 744 745 746 746 746 747 747 748 748 748 748 748 749 750 749 749 750 749 748 750 749 747 743 736 727 728 731 730 728 727 727 727 726 725 724 723 722 722 721 721 720 718
693 694 696 697 698 699 700 702 703 704 705 706 708 709 711 712 713 714 715 716 717 718 719 720 721 722 723 724 725 727 728 729 730 731 732 734 735 736 736 737 738 739 740 741 742 743 743 743 743 744 745 745 744 745 746 746 746 746 746 746 746 745 746 747 745 742 738 729 724 726 728 726 724 724 724 723 722 721 720 718 718 717 717 716 714
690 691 693 695 696 697 698 699 701 702 703 704 705 707 708 710 711 712 713 714 714 715 717 717 718 719 720 721 723 724 725 726 727 728 729 731 732 733 733 734 735 736 737 738 739 740 740 740 740 741 742 741 742 742 742 743 743 743 743 743 743 743 743 744 742 740 738 731 723 721 724 723 721 721 722 720 718 717 716 715 714 713 712 710 710
688 689 691 692 693 694 696 697 698 699 700 702 703 705 706 707 708 709 710 711 712 713 714 715 716 717 718 719 720 721 723 724 725 726 727 728 729 730 731 732 733 734 735 735 736 737 737 737 737 738 739 738 739 739 739 740 740 740 740 739 740 740 739 738 737 736 734 731 725 720 719 720 719 718 718 717 715 713 712 710 709 709 708 705 704
686 687 688 690 691 692 693 694 696 697 698 700 701 703 704 705 706 707 708 709 710 711 712 713 714 715 716 717 718 719 721 721 722 723 724 726 727 728 729 730 731 731 732 733 733 734 734 734 734 735 736 736 736 736 736 736 737 736 736 736 736 736 735 734 734 733 731 728 725 720 717 716 716 715 714 714 713 711 710 707 703 703 704 701 699
685 686 687 688 689 690 691 692 694 695 696 698 699 701 702 703 704 705 706 707 708 709 710 711 712 713 714 715 716 717 718 719 720 721 722 723 724 725 726 727 728 729 729 730 730 731 731 731 732 732 732 733 733 733 733 733 733 733 733 733 733 732 732 731 731 730 728 725 722 719 717 714 713 712 711 712 712 709 709 708 702 698 700 698 694
683 684 685 686 687 688 689 690 691 693 694 696 697 699 701 702 703 703 704 705 706 707 708 709 710 711 713 714 715 716 717 717 718 719 720 721 722 723 724 724 725 725 726 726 727 727 728 728 728 728 729 729 729 729 729 729 729 729 729 729 730 729 729 729 728 727 726 723 720 718 717 712 710 711 710 710 711 709 708 708 703 698 698 694 690
681 682 684 684 685 686 687 688 689 690 692 694 696 698 699 700 701 702 703 704 706 707 707 708 709 710 711 712 713 714 715 716 716 717 718 719 719 720 721 721 722 722 722 723 723 724 724 724 725 725 725 725 725 725 725 725 725 725 725 726 726 726 726 725 725 725 724 721 718 717 716 710 707 710 710 708 709 709 707 706 703 698 698 693 685
679 680 681 682 683 684 684 685 686 688 690 692 694 696 697 698 699 701 702 703 704 705 706 707 708 709 710 711 712 712 713 714 714 715 715 716 716 717 718 718 719 719 719 720 720 721 721 721 722 722 722 722 722 721 721 721 721 721 722 722 722 722 722 722 721 721 721 719 715 714 714 709 704 707 709 707 706 706 704 704 702 698 697 693 685
676 677 678 680 680 681 682 683 685 687 689 691 692 693 695 696 697 699 700 701 703 704 705 706 707 708 709 709 710 711 711 712 712 712 713 714 714 715 716 716 716 717 717 718 718 719 719 719 719 719 719 719 718 718 718 718 718 718 718 719 719 719 719 719 718 718 718 717 713 710 711 709 704 704 707 705 703 703 701 700 700 697 695 693 687
672 673 675 677 678 680 680 682 684 687 688 689 690 691 693 694 696 697 699 700 702 702 703 704 705 706 707 708 708 709 710 710 711 711 711 712 713 713 714 714 715 715 716 716 716 717 717 717 717 716 716 716 716 716 716 716 716 716 716 716 716 716 716 715 715 715 715 714 711 706 707 709 704 702 705 705 702 701 699 697 697 696 693 690 684
668 670 673 676 677 677 678 681 684 686 687 688 689 690 692 693 695 697 698 700 701 702 703 704 705 706 706 707 708 708 709 709 709 710 710 710 711 712 712 713 713 714 714 715 715 715 715 715 715 714 715 715 714 714 714 714 714 713 713 713 712 712 712 712 712 712 712 711 709 705 705 707 705 701 703 704 702 700 698 695 694 694 690 685 681
665 668 671 674 675 675 676 680 684 686 686 686 687 689 691 692 694 696 698 700 701 701 702 703 704 705 705 706 707 707 708 708 708 709 709 709 710 710 711 712 712 713 713 713 714 714 714 713 713 713 714 714 714 714 713 713 712 711 710 710 709 709 709 709 709 709 708 708 706 704 703 704 703 701 701 701 700 699 697 694 693 691 687 682 676
663 665 668 670 671 672 674 678 682 684 684 684 685 687 689 691 694 696 697 699 700 700 701 702 703 704 704 705 705 706 707 707 708 708 708 708 709 709 710 710 711 711 712 712 713 713 713 713 713 713 713 713 713 713 713 711 710 708 707 706 706 706 705 705 705 705 704 703 702 701 700 699 699 698 697 697 696 695 694 691 690 689 686 680 673
660 662 665 667 668 670 673 676 680 682 682 682 682 684 687 690 693 695 696 698 699 699 700 701 701 702 703 703 704 705 706 706 706 707 707 708 708 709 709 710 710 711 712 712 712 713 713 713 713 713 713 713 713 713 712 710 708 707 705 703 703 702 702 702 702 701 700 700 699 698 696 695 694 693 693 693 691 692 691 687 686 686 684 680 673
657 659 662 665 667 669 672 675 678 680 681 681 681 682 685 688 691 693 695 696 697 698 699 699 700 701 701 702 702 703 704 705 705 705 706 706 707 708 708 709 710 710 711 711 711 712 712 712 712 713 713 713 713 712 711 709 707 706 704 702 699 698 697 698 697 696 696 695 694 693 692 691 690 689 689 688 687 688 687 684 683 683 681 679 675
655 658 661 664 667 670 672 675 678 679 680 680 680 680 683 686 689 692 694 695 696 697 698 699 699 699 700 700 701 701 702 703 703 704 704 705 705 706 706 707 708 709 709 709 710 710 711 711 711 712 712 712 712 711 710 709 707 705 704 701 698 695 694 695 693 692 691 690 689 688 687 687 686 685 685 685 684 684 683 681 680 680 677 675 675
653 656 660 663 667 669 671 674 677 678 678 679 679 679 680 683 687 689 691 693 694 695 697 698 698 699 699 699 700 700 701 701 702 702 703 703 703 704 705 705 706 706 707 707 707 708 708 709 710 710 710 710 710 709 709 708 707 705 703 701 697 694 692 692 691 689 687 685 684 684 683 682 682 681 681 681 681 680 680 678 678 677 675 672 671
652 655 658 662 665 668 670 673 675 677 677 677 677 678 679 681 684 687 689 691 692 693 695 696 697 698 698 699 699 700 700 700 700 701 701 702 702 702 703 703 704 704 705 705 705 706 706 706 707 707 707 707 707 707 706 705 705 703 701 699 697 694 692 689 687 686 684 682 680 679 678 677 677 677 677 677 677 677 677 676 675 674 673 670 668
650 654 657 660 663 666 669 672 674 676 677 676 675 676 678 680 682 684 686 688 689 691 692 694 695 696 697 697 698 699 699 699 700 700 700 700 701 701 701 702 702 702 703 703 703 704 704 703 704 704 704 703 703 703 702 702 702 700 699 697 695 693 691 688 685 684 682 680 677 675 674 674 673 673 673 673 673 673 673 673 672 671 670 668 667
648 653 657 659 662 665 667 671 674 676 677 678 677 676 677 678 679 681 683 684 686 688 689 691 692 693 694 695 696 697 698 698 699 699 699 699 700 700 701 701 701 701 702 701 701 701 701 701 700 700 700 699 699 699 699 698 698 697 696 695 694 692 690 687 685 682 680 678 676 672 670 671 670 670 670 669 669 669 669 668 668 667 666 664 663
646 650 654 657 660 663 665 669 672 675 678 678 677 677 676 676 677 679 680 681 683 684 686 688 689 691 692 693 694 695 696 697 697 698 698 698 699 699 700 700 700 700 700 700 699 698 698 697 697 696 696 695 695 695 695 695 695 694 694 694 692 691 689 686 684 682 679 676 674 671 668 669 669 668 667 667 666 665 665 664 663 663 662 660 658
645 647 651 655 658 661 664 667 672 676 679 678 676 675 675 674 675 676 677 678 680 682 684 686 687 689 690 692 693 694 695 696 696 696 697 697 697 698 698 698 698 698 697 696 696 695 695 694 693 693 692 692 691 691 691 691 691 691 691 691 691 690 688 686 684 681 678 675 673 669 667 667 667 666 665 664 663 662 661 660 659 658 657 655 653
643 646 648 652 656 660 663 667 672 676 679 678 675 674 673 672 673 674 675 677 679 681 683 685 686 688 690 691 692 694 694 694 694 695 695 695 695 695 695 695 695 694 694 693 692 692 691 691 690 689 689 688 687 687 686 686 687 687 687 688 688 688 687 685 683 681 678 674 671 668 666 665 664 664 663 662 661 660 659 657 655 654 653 652 648
641 645 647 650 655 659 661 665 670 674 676 676 675 674 673 672 673 675 676 677 679 681 683 685 687 688 690 691 692 692 692 693 693 693 693 693 693 693 693 693 692 691 690 690 689 688 688 687 686 686 685 684 683 683 682 682 683 683 684 685 685 685 685 684 683 681 678 675 671 667 665 663 662 661 660 659 658 657 657 655 653 650 650 649 645
640 644 649 652 656 658 660 662 666 670 673 673 673 673 674 674 675 676 677 678 679 681 684 685 687 689 689 690 690 690 690 691 692 692 692 692 692 692 692 691 691 689 688 687 685 684 683 682 682 681 680 679 679 679 679 679 680 681 681 682 682 682 682 682 681 679 677 674 671 667 664 662 660 658 657 656 655 654 654 653 651 648 647 646 643
641 645 651 655 658 659 659 661 664 668 670 672 673 674 675 676 677 677 677 678 679 681 683 685 687 688 689 689 690 690 689 690 690 691 691 691 691 691 690 690 689 687 686 684 681 679 678 677 676 676 676 675 675 675 676 676 677 678 679 680 680 680 680 679 678 677 675 673 670 666 663 660 658 656 655 653 651 651 652 651 649 647 645 643 640
643 648 652 656 657 658 660 662 665 668 670 672 673 674 676 677 677 677 677 677 679 680 682 684 686 687 687 688 688 689 689 689 689 690 690 690 690 689 689 688 687 685 683 681 678 676 674 674 674 675 675 675 675 675 674 674 675 675 676 677 678 678 677 676 676 674 673 672 669 666 663 660 657 655 653 651 648 648 648 648 647 645 643 641 637
645 650 653 654 655 657 660 663 666 668 670 672 673 674 676 677 677 677 676 677 678 679 681 683 685 686 686 686 686 687 687 688 688 688 688 688 687 687 687 686 685 683 681 679 677 676 676 675 675 676 677 677 677 676 675 674 674 673 673 674 674 675 674 674 673 672 671 669 667 664 662 659 656 653 651 649 646 644 644 644 643 642 640 638 635
647 650 652 653 655 657 661 664 667 669 670 671 672 674 675 675 675 675 674 675 676 677 679 681 682 683 684 684 685 685 686 686 686 686 686 686 685 685 685 684 683 681 680 679 677 677 678 677 677 677 678 677 677 676 675 673 672 672 671 671 671 671 672 671 670 669 668 666 664 662 659 657 654 651 648 646 644 642 640 640 639 638 636 634 632
648 651 652 654 656 659 662 665 668 669 670 671 672 672 673 673 672 671 671 672 674 675 677 678 679 680 681 682 683 683 684 684 684 684 685 685 685 685 684 683 682 681 680 680 679 678 679 679 678 677 677 676 675 674 672 671 670 670 670 670 669 668 668 668 667 665 664 662 660 658 656 653 651 648 645 643 641 639 637 636 635 635 633 630 628
651 653 655 656 659 662 664 666 668 669 670 670 670 670 672 673 671 670 669 670 672 673 675 676 677 678 679 680 681 682 682 683 683 684 684 684 684 684 683 682 681 680 680 680 680 679 679 678 678 677 676 675 673 671 670 669 668 668 668 667 666 665 664 664 663 662 660 658 656 654 651 649 647 644 641 639 637 635 633 632 631 630 629 627 624
654 656 658 660 662 665 667 668 669 669 669 668 668 669 672 673 672 670 669 670 672 674 675 676 677 678 679 680 681 682 682 683 683 684 684 684 683 682 682 681 680 680 680 680 679 679 678 678 677 676 675 672 670 669 667 666 666 666 665 664 663 661 660 659 658 657 656 654 652 650 647 645 642 640 638 635 633 631 629 628 627 626 624 623 621
657 659 660 662 665 666 667 668 668 668 667 666 667 670 674 675 673 670 670 671 672 674 675 676 677 678 679 680 681 681 681 682 682 682 682 682 681 681 680 680 679 679 679 679 679 678 678 677 676 674 672 669 667 666 665 664 664 664 663 662 660 657 656 655 654 653 652 650 648 645 643 640 637 636 633 630 628 627 625 624 623 621 620 619 617
660 661 662 663 665 666 666 666 666 666 666 667 670 673 676 675 673 671 671 671 672 673 675 676 677 678 679 679 680 680 681 681 681 681 681 681 680 679 679 679 679 678 678 678 678 678 677 675 673 670 668 666 664 663 663 663 663 662 661 660 658 656 654 653 651 650 649 646 644 641 638 635 632 631 629 625 623 621 620 619 617 616 615 614 613
662 662 663 663 664 664 665 665 666 667 668 670 673 675 675 673 671 671 670 670 671 672 674 675 676 677 678 679 680 680 680 680 680 680 680 679 679 678 677 677 677 677 677 677 677 676 674 672 669 667 665 664 664 664 663 663 663 662 661 659 657 655 653 651 649 648 646 644 641 638 635 632 629 627 624 620 617 616 615 614 613 611 610 609 608
665 664 664 664 663 664 665 666 667 669 670 672 673 674 672 671 670 670 670 670 671 672 674 676 677 677 678 679 679 679 679 678 679 679 678 677 676 676 675 675 675 676 675 674 673 671 669 668 666 665 665 665 665 665 665 664 663 662 661 658 656 653 651 650 647 645 643 641 638 635 632 628 625 623 620 617 614 612 611 609 608 607 605 603 602
666 666 665 665 664 665 665 666 668 670 671 672 672 671 670 670 670 671 671 671 672 673 675 676 677 678 679 679 680 679 679 679 678 677 676 675 675 675 675 675 674 673 671 669 668 666 665 665 665 664 665 665 665 665 665 664 662 661 659 657 655 652 649 648 646 643 640 638 635 632 629 625 622 619 617 614 611 609 606 604 602 601 600 598 596
667 667 667 666 666 666 667 668 669 670 670 670 670 670 670 671 672 672 672 672 673 674 676 677 678 679 680 680 679 679 678 678 677 676 676 676 677 676 675 672 670 668 666 665 664 663 663 663 663 664 664 664 664 664 663 662 661 659 657 655 653 651 648 646 644 642 639 636 633 630 627 624 621 617 614 611 609 606 603 600 598 596 594 592 590
668 669 669 669 669 668 668 669 669 669 669 669 670 671 672 672 673 673 673 673 674 674 675 677 678 679 679 679 678 678 677 677 677 677 677 677 675 673 670 667 665 664 663 663 662 662 662 662 662 663 663 663 663 662 661 660 659 657 656 654 652 650 647 644 643 641 638 635 631 628 624 621 618 615 612 609 607 604 601 598 595 591 588 586 585
668 669 670 671 671 670 670 669 669 669 669 670 670 671 672 672 673 673 673 673 674 674 675 676 677 677 678 678 677 677 678 677 677 676 674 672 669 667 665 664 663 662 661 661 661 661 661 662 662 662 663 663 663 662 661 660 658 656 654 653 650 648 646 643 641 639 636 633 629 626 622 618 615 612 609 605 603 601 598 595 592 589 586 583 581
669 669 670 671 671 671 671 670 670 669 669 669 669 669 670 671 672 672 673 674 674 675 675 676 677 677 678 678 677 677 676 675 673 671 668 666 665 664 662 662 661 660 660 660 660 661 661 661 661 661 661 662 662 661 659 658 657 655 653 651 649 647 645 642 639 637 634 631 627 623 619 616 613 609 606 603 600 598 595 592 590 587 585 582 579
669 669 669 670 670 670 670 669 669 668 668 667 667 668 669 670 672 673 674 675 675 676 676 677 678 678 677 676 674 673 671 670 668 666 664 664 663 662 661 660 659 659 659 659 659 660 660 660 660 659 659 659 659 658 657 655 654 653 651 650 647 645 642 640 637 635 632 629 625 621 617 614 611 608 605 602 599 595 592 588 586 584 582 579 577
669 669 669 669 669 669 668 668 668 667 667 667 668 669 670 671 673 674 676 676 676 676 676 676 676 675 673 670 669 668 666 665 663 662 662 662 662 661 660 659 659 658 658 658 658 658 658 658 658 657 657 656 655 655 654 653 651 650 649 647 645 642 639 637 634 631 628 625 622 618 614 611 608 605 602 599 596 593 589 585 582 580 578 576 574
669 669 669 668 668 668 668 668 668 668 668 669 669 670 671 672 673 674 675 675 675 674 674 673 672 670 668 666 665 663 662 661 660 660 661 661 661 660 659 658 658 657 657 657 657 657 657 657 656 655 655 654 653 652 651 650 649 647 645 643 641 638 635 633 630 627 624 621 618 614 611 607 603 600 598 595 592 589 585 582 579 576 573 571 569
668 668 668 668 668 668 668 668 669 669 670 670 670 671 671 672 672 673 673 672 672 671 670 669 668 667 665 664 662 660 659 659 659 660 661 660 660 659 658 657 657 657 656 656 656 656 655 655 654 653 652 652 650 649 648 646 645 643 641 639 636 634 631 629 626 623 620 617 614 610 606 602 598 595 592 590 588 585 581 577 574 571 568 565 563
668 667 667 667 667 668 668 669 669 670 670 670 670 670 670 670 670 669 669 668 668 667 666 666 666 665 664 662 661 659 658 658 658 659 659 659 659 658 657 657 656 656 655 655 655 654 654 653 652 651 650 649 648 647 645 643 641 639 637 634 632 629 627 625 622 619 616 613 609 605 602 597 593 590 587 584 581 579 576 573 570 567 564 560 558
667 667 667 667 667 667 668 668 669 669 669 669 669 668 668 667 667 666 665 665 665 664 664 664 664 664 663 661 660 658 657 657 657 658 658 658 658 657 657 656 655 655 654 654 653 653 652 651 650 649 648 647 645 644 642 640 638 635 633 631 628 626 623 621 618 615 611 608 604 600 596 592 588 584 581 578 575 573 570 568 565 562 559 556 553
667 667 667 667 667 667 667 668 668 668 668 667 667 666 665 665 664 664 663 663 663 663 663 664 664 663 662 661 659 658 657 657 657 657 657 657 657 656 655 655 654 654 653 653 652 651 650 649 648 647 646 644 642 641 639 636 634 632 630 628 625 623 620 617 614 610 606 603 599 594 590 586 582 578 575 572 569 567 564 562 560 557 554 551 548